When you browse on this site, cookies collect data to enhance your experience and personalize the content and advertising you see.
Visit our Privacy Policy to learn more. By continuing to use the site, you agree to this use of cookies and data.
  • în România
  • Lista ţărilor
  • Pe 7 zile
  • Temperatura apei
  • Hartă satelitară
  • Meteo pe hartă
  • Widget-uri
  • user-avatar
    Intrare

    Meteo pe oră la Shardzha

    Astăzi, 20 Iulie, Sâmbătă

    Timp Temperatura Precipitaţii Vânt Presiune Umiditate
    00:00 +36°C° 0 mm 2 m/s 747 mmHg 62%
    01:00 +36°C° 0 mm 2 m/s 747 mmHg 66%
    02:00 +35°C° 0 mm 3 m/s 747 mmHg 64%
    03:00 +35°C° 0 mm 4 m/s 747 mmHg 62%
    04:00 +35°C° 0 mm 4 m/s 747 mmHg 60%
    05:00 +35°C° 0 mm 6 m/s 747 mmHg 62%
    06:00 +35°C° 0 mm 7 m/s 748 mmHg 65%
    07:00 +35°C° 0 mm 8 m/s 749 mmHg 68%
    08:00 +39°C° 0 mm 7 m/s 749 mmHg 56%
    09:00 +41°C° 0 mm 5 m/s 749 mmHg 44%
    10:00 +44°C° 0 mm 3 m/s 749 mmHg 32%
    11:00 +45°C° 0 mm 4 m/s 749 mmHg 30%
    12:00 +48°C° 0 mm 6 m/s 748 mmHg 28%
    13:00 +50°C° 0 mm 7 m/s 748 mmHg 27%
    14:00 +49°C° 0 mm 7 m/s 748 mmHg 30%
    15:00 +47°C° 0 mm 7 m/s 747 mmHg 33%
    16:00 +46°C° 0 mm 6 m/s 747 mmHg 37%
    17:00 +45°C° 0 mm 6 m/s 747 mmHg 38%
    18:00 +43°C° 0 mm 5 m/s 747 mmHg 40%
    19:00 +42°C° 0 mm 4 m/s 747 mmHg 42%
    20:00 +39°C° 0 mm 3 m/s 747 mmHg 50%
    21:00 +38°C° 0 mm 2 m/s 747 mmHg 57%
    22:00 +36°C° 0 mm 1 m/s 747 mmHg 65%
    23:00 +36°C° 0 mm 2 m/s 747 mmHg 63%

    Mâine, 21 Iulie, Duminică

    Timp Temperatura Precipitaţii Vânt Presiune Umiditate
    00:00 +36°C° 0 mm 3 m/s 748 mmHg 62%
    01:00 +36°C° 0 mm 3 m/s 748 mmHg 60%
    02:00 +36°C° 0 mm 3 m/s 748 mmHg 59%
    03:00 +35°C° 0 mm 3 m/s 747 mmHg 58%
    04:00 +35°C° 0 mm 3 m/s 747 mmHg 57%
    05:00 +35°C° 0 mm 4 m/s 748 mmHg 56%
    06:00 +36°C° 0 mm 6 m/s 748 mmHg 54%
    07:00 +36°C° 0 mm 7 m/s 749 mmHg 53%
    08:00 +39°C° 0 mm 6 m/s 749 mmHg 45%
    09:00 +42°C° 0 mm 4 m/s 749 mmHg 38%
    10:00 +44°C° 0 mm 3 m/s 749 mmHg 30%
    11:00 +45°C° 0 mm 4 m/s 749 mmHg 28%
    12:00 +47°C° 0 mm 5 m/s 749 mmHg 26%
    13:00 +49°C° 0 mm 6 m/s 748 mmHg 25%
    14:00 +49°C° 0 mm 6 m/s 748 mmHg 26%
    15:00 +48°C° 0 mm 6 m/s 747 mmHg 28%
    16:00 +48°C° 0 mm 6 m/s 747 mmHg 30%
    17:00 +46°C° 0 mm 6 m/s 747 mmHg 33%
    18:00 +45°C° 0 mm 5 m/s 747 mmHg 36%
    19:00 +42°C° 0 mm 4 m/s 747 mmHg 39%
    20:00 +41°C° 0 mm 4 m/s 747 mmHg 42%
    21:00 +38°C° 0 mm 4 m/s 747 mmHg 46%
    22:00 +37°C° 0 mm 4 m/s 748 mmHg 50%
    23:00 +36°C° 0 mm 5 m/s 748 mmHg 54%

    Poimâine, 22 Iulie, Luni

    Timp Temperatura Precipitaţii Vânt Presiune Umiditate
    00:00 +35°C° 0 mm 5 m/s 748 mmHg 58%
    01:00 +34°C° 0 mm 6 m/s 748 mmHg 61%
    02:00 +34°C° 0 mm 5 m/s 747 mmHg 61%
    03:00 +34°C° 0 mm 5 m/s 747 mmHg 61%
    04:00 +33°C° 0 mm 5 m/s 747 mmHg 60%
    05:00 +33°C° 0 mm 5 m/s 748 mmHg 61%
    06:00 +33°C° 0 mm 6 m/s 748 mmHg 62%
    07:00 +33°C° 0 mm 6 m/s 748 mmHg 63%
    08:00 +36°C° 0 mm 5 m/s 748 mmHg 53%
    09:00 +39°C° 0 mm 3 m/s 748 mmHg 42%
    10:00 +42°C° 0 mm 2 m/s 749 mmHg 31%
    11:00 +44°C° 0 mm 3 m/s 748 mmHg 29%
    12:00 +47°C° 0 mm 4 m/s 748 mmHg 27%
    13:00 +48°C° 0 mm 6 m/s 748 mmHg 25%
    14:00 +47°C° 0 mm 5 m/s 747 mmHg 27%
    15:00 +47°C° 0 mm 5 m/s 746 mmHg 29%
    16:00 +46°C° 0 mm 5 m/s 746 mmHg 31%
    17:00 +43°C° 0 mm 5 m/s 746 mmHg 37%
    18:00 +42°C° 0 mm 5 m/s 746 mmHg 43%
    19:00 +40°C° 0 mm 4 m/s 746 mmHg 49%
    20:00 +38°C° 0 mm 4 m/s 746 mmHg 53%
    21:00 +37°C° 0 mm 4 m/s 746 mmHg 57%
    22:00 +36°C° 0 mm 4 m/s 746 mmHg 61%
    23:00 +36°C° 0 mm 4 m/s 746 mmHg 58%

    23 Iulie, Marţi

    Timp Temperatura Precipitaţii Vânt Presiune Umiditate
    00:00 +36°C° 0 mm 4 m/s 746 mmHg 55%
    01:00 +35°C° 0 mm 4 m/s 746 mmHg 52%
    02:00 +35°C° 0 mm 4 m/s 746 mmHg 53%
    03:00 +34°C° 0 mm 4 m/s 746 mmHg 54%
    04:00 +34°C° 0 mm 4 m/s 746 mmHg 55%
    05:00 +34°C° 0 mm 4 m/s 746 mmHg 54%
    06:00 +35°C° 0 mm 4 m/s 746 mmHg 53%
    07:00 +35°C° 0 mm 4 m/s 747 mmHg 51%
    08:00 +37°C° 0 mm 3 m/s 747 mmHg 45%
    09:00 +40°C° 0 mm 3 m/s 747 mmHg 38%
    10:00 +42°C° 0 mm 2 m/s 747 mmHg 32%
    11:00 +44°C° 0 mm 3 m/s 747 mmHg 29%
    12:00 +46°C° 0 mm 3 m/s 747 mmHg 26%
    13:00 +49°C° 0 mm 4 m/s 747 mmHg 23%
    14:00 +48°C° 0 mm 5 m/s 746 mmHg 24%
    15:00 +47°C° 0 mm 5 m/s 746 mmHg 26%
    16:00 +47°C° 0 mm 6 m/s 745 mmHg 28%
    17:00 +45°C° 0 mm 6 m/s 745 mmHg 33%
    18:00 +42°C° 0 mm 5 m/s 745 mmHg 39%
    19:00 +40°C° 0 mm 5 m/s 745 mmHg 44%
    20:00 +39°C° 0 mm 5 m/s 745 mmHg 46%
    21:00 +37°C° 0 mm 4 m/s 745 mmHg 48%
    22:00 +36°C° 0 mm 4 m/s 746 mmHg 50%
    23:00 +35°C° 0 mm 5 m/s 746 mmHg 52%

    24 Iulie, Miercuri

    Timp Temperatura Precipitaţii Vânt Presiune Umiditate
    00:00 +35°C° 0 mm 5 m/s 746 mmHg 55%
    01:00 +34°C° 0 mm 6 m/s 746 mmHg 57%
    02:00 +34°C° 0 mm 6 m/s 746 mmHg 60%
    03:00 +33°C° 0 mm 6 m/s 746 mmHg 62%
    04:00 +33°C° 0 mm 6 m/s 746 mmHg 64%
    05:00 +34°C° 0 mm 6 m/s 746 mmHg 62%
    06:00 +34°C° 0 mm 6 m/s 747 mmHg 60%
    07:00 +35°C° 0 mm 6 m/s 747 mmHg 58%
    08:00 +37°C° 0 mm 4 m/s 747 mmHg 49%
    09:00 +39°C° 0 mm 3 m/s 747 mmHg 41%
    10:00 +41°C° 0 mm 1 m/s 748 mmHg 32%
    11:00 +44°C° 0 mm 3 m/s 747 mmHg 31%
    12:00 +45°C° 0 mm 4 m/s 747 mmHg 29%
    13:00 +47°C° 0 mm 6 m/s 747 mmHg 28%
    14:00 +46°C° 0 mm 6 m/s 746 mmHg 31%
    15:00 +45°C° 0 mm 6 m/s 746 mmHg 35%
    16:00 +44°C° 0 mm 6 m/s 745 mmHg 38%
    17:00 +42°C° 0 mm 5 m/s 745 mmHg 44%
    18:00 +40°C° 0 mm 5 m/s 745 mmHg 50%
    19:00 +37°C° 0 mm 5 m/s 745 mmHg 55%
    20:00 +37°C° 0 mm 4 m/s 746 mmHg 57%
    21:00 +36°C° 0 mm 4 m/s 746 mmHg 60%
    22:00 +36°C° 0 mm 3 m/s 746 mmHg 62%
    23:00 +35°C° 0 mm 3 m/s 746 mmHg 59%

    25 Iulie, Joi

    Timp Temperatura Precipitaţii Vânt Presiune Umiditate
    00:00 +35°C° 0 mm 3 m/s 746 mmHg 56%
    01:00 +35°C° 0 mm 3 m/s 746 mmHg 52%
    02:00 +35°C° 0 mm 4 m/s 746 mmHg 51%
    03:00 +35°C° 0 mm 4 m/s 746 mmHg 49%
    04:00 +35°C° 0 mm 5 m/s 746 mmHg 48%
    05:00 +36°C° 0 mm 5 m/s 747 mmHg 48%
    06:00 +36°C° 0 mm 6 m/s 747 mmHg 48%
    07:00 +36°C° 0 mm 7 m/s 748 mmHg 48%
    08:00 +39°C° 0 mm 6 m/s 748 mmHg 43%
    09:00 +40°C° 0 mm 6 m/s 748 mmHg 39%
    10:00 +42°C° 0 mm 5 m/s 749 mmHg 34%
    11:00 +43°C° 0 mm 5 m/s 748 mmHg 31%
    12:00 +46°C° 0 mm 5 m/s 748 mmHg 28%
    13:00 +47°C° 0 mm 4 m/s 747 mmHg 24%
    14:00 +46°C° 0 mm 5 m/s 747 mmHg 29%
    15:00 +45°C° 0 mm 6 m/s 746 mmHg 33%
    16:00 +44°C° 0 mm 7 m/s 746 mmHg 37%
    17:00 +42°C° 0 mm 6 m/s 746 mmHg 42%
    18:00 +40°C° 0 mm 4 m/s 746 mmHg 47%
    19:00 +38°C° 0 mm 3 m/s 745 mmHg 52%
    20:00 +37°C° 0 mm 2 m/s 746 mmHg 54%
    21:00 +36°C° 0 mm 2 m/s 746 mmHg 56%
    22:00 +35°C° 0 mm 1 m/s 746 mmHg 57%
    23:00 +34°C° 0 mm 1 m/s 746 mmHg 57%
    Arată mai mult